Location: Alafon
(8.4500°N, 4.2333°E)
Time: 15:30:04
(UTC+00:00)

Vanguard 1 Rocket - Pass Details

Date: 29 July 2021
Orbit: 650 x 4226 km, 34.3° (Epoch: 23 September)

Event Time Altitude Azimuth Distance (km) Brightness Sun altitude
Rises 20:23:51 0° 262° (W) 3,074 10.8 -32.5°
Reaches altitude 10° 20:27:21 10° 232° (SW) 2,408 9.8 -33.3°
Enters shadow 20:28:30 12° 219° (SW) 2,363 9.6 -33.6°
